Flag for Norway Weather past 2 weeks in Vennesla, Norway

Now
45 °F

Quite cool.


Feels Like: 40 °F
Forecast: 44 / 57 °F
Wind: 9 mph from Southwest

Location: Kristiansand / Kjevik

Current Time: May 31, 2015 at 1:28:15 AM

Latest Report: May 31, 2015 at 12:50 AM


Visibility: N/A

Pressure: 29.59 "Hg

Humidity: 81%

Dew point: 39 °F

Location of VenneslaLocation

Historic Weather in Vennesla — Graph

°F

Vennesla temperature yesterday

Maximum temperature yesterday: 57 °F (at 1:50 PM)
Minimum temperature yesterday: 45 °F (at 12:20 AM)
Average temperature yesterday: 50 °F

Past Weeks' High & Low Weather Summary

 TemperatureHumidityPressure
High63 °F (May 26, 1:50 PM)100% (May 16, 10:20 AM)30.09 "Hg (May 16, 10:20 AM)
Low36 °F (May 18, 5:50 AM)25% (May 23, 2:50 PM)29.33 "Hg (May 19, 3:20 AM)
Average49 °F73%29.79 "Hg
* Reported May 15 11:20 PM — May 30 11:50 PM, Vennesla, Weather by CustomWeather, © 2015

Note: Actual official high and low records may vary slightly from our data, if they occured in-between our weather recording intervals... More about our weather records

Advertising

Vennesla weather history for previous 24 hours

 ConditionsComfort  
Time TempWeatherWind HumidityBarometerVisibility
11:50 PM
Sat, May 30
46 °FPassing clouds.10 mph76%29.59 "HgN/A
10:50 PM48 °FSunny.13 mph71%29.59 "Hg10 mi
10:20 PM48 °FSunny.10 mph71%29.59 "Hg10 mi
9:50 PM50 °FSunny.9 mph67%29.59 "Hg10 mi
9:20 PM50 °FSunny.10 mph67%29.59 "Hg10 mi
8:50 PM52 °FSunny.14 mph62%29.59 "Hg10 mi
8:20 PM52 °FSunny.17 mph58%29.59 "Hg10 mi
7:50 PM54 °FPassing clouds.17 mph58%29.56 "HgN/A
7:20 PM54 °FPassing clouds.16 mph58%29.56 "HgN/A
6:50 PM55 °FScattered clouds.18 mph51%29.56 "HgN/A
6:20 PM55 °FScattered clouds.20 mph47%29.56 "HgN/A
5:50 PM55 °FScattered clouds.21 mph55%29.56 "HgN/A
5:20 PM55 °FScattered clouds.20 mph51%29.56 "HgN/A
4:50 PM55 °FScattered showers. Scattered clouds.15 mph59%29.53 "HgN/A
4:20 PM52 °FScattered clouds.15 mph67%29.53 "HgN/A
3:50 PM57 °FPassing clouds.12 mph51%29.53 "HgN/A
3:20 PM55 °FPassing clouds.13 mph44%29.53 "HgN/A
2:50 PM55 °FPassing clouds.15 mph44%29.53 "HgN/A
2:20 PM57 °FPassing clouds.13 mph44%29.50 "HgN/A
1:50 PM57 °FPartly sunny.10 mph48%29.50 "HgN/A
1:20 PM55 °FPartly sunny.14 mph51%29.50 "HgN/A
12:50 PM54 °FScattered showers. Partly sunny.14 mph54%29.50 "HgN/A
12:20 PM55 °FScattered showers. Scattered clouds.12 mph55%29.47 "HgN/A
11:50 AM52 °FScattered showers. Scattered clouds.10 mph67%29.47 "HgN/A
11:20 AM54 °FScattered clouds.8 mph67%29.47 "HgN/A
10:50 AM50 °FPartly sunny.7 mph71%29.47 "HgN/A
10:20 AM50 °FBroken clouds.5 mph71%29.47 "HgN/A
9:50 AM50 °FScattered clouds.5 mph76%29.47 "HgN/A
9:20 AM48 °FScattered clouds.5 mph82%29.47 "HgN/A
8:50 AM46 °FScattered clouds.6 mph87%29.47 "HgN/A
8:20 AM45 °FPartly sunny.7 mph87%29.47 "HgN/A
7:50 AM45 °FPartly sunny.8 mph87%29.47 "HgN/A
7:20 AM45 °FPartly sunny.8 mph87%29.47 "HgN/A
6:50 AM45 °FDrizzle. Partly sunny.8 mph87%29.47 "HgN/A
6:20 AM45 °FDrizzle. Partly sunny.6 mph93%29.47 "HgN/A
5:50 AM45 °FPartly sunny.5 mph87%29.47 "HgN/A
5:20 AM45 °FOvercast.3 mph93%29.47 "HgN/A
4:50 AM45 °FOvercast.3 mph93%29.47 "HgN/A
4:20 AM45 °FLight rain. Overcast.5 mph93%29.47 "HgN/A
3:50 AM45 °FDrizzle. Mostly cloudy.3 mph93%29.50 "HgN/A
3:20 AM45 °FDrizzle. Mostly cloudy.6 mph93%29.50 "HgN/A
2:50 AM45 °FMostly cloudy.6 mph93%29.50 "HgN/A
2:20 AM45 °FLight rain. Mostly cloudy.7 mph93%29.53 "HgN/A
1:50 AM45 °FDrizzle. Overcast.6 mph93%29.53 "HgN/A
1:20 AM45 °FDrizzle. Overcast.5 mph93%29.53 "HgN/A
Weather by CustomWeather, © 2015

See weather overviewHow to use our weather pages